Wind_Speed
26 26 26 25 25 25 25 25 25 24 24 24 23 23 23 22 21 21 20 19 18 17 17 16 16 16 16 16 16 17 17 17 17 17 18 18 18 19 19 19 19 20 20 20 21 21 21 21 22 22 23 24 24 25 25 25 25 24 22 22 24 25 25 26 26 25 24 22 22 21 21 21 21 22 22 19 18 17 18 20 20 18 19 19 18 18 19 19
29 28 28 28 27 27 27 27 27 26 26 26 25 25 24 23 22 22 21 20 19 19 19 18 18 18 18 18 19 19 20 20 20 20 20 20 21 21 21 21 22 23 23 23 24 24 24 24 25 26 26 26 26 27 27 26 25 23 22 22 24 25 25 26 27 26 24 23 23 23 23 23 24 25 24 20 17 19 19 19 20 19 20 20 19 19 19 20
32 31 31 30 30 30 29 29 28 28 27 27 26 25 25 24 23 22 22 21 21 21 21 20 20 20 20 21 21 21 22 23 23 22 22 22 23 23 24 24 24 25 26 27 27 27 27 27 28 28 28 28 27 27 27 25 24 23 22 23 24 25 26 27 27 27 26 25 25 25 25 26 26 27 26 21 16 18 20 19 19 20 21 21 20 20 20 21
34 33 33 32 32 31 31 30 29 28 28 27 26 26 25 25 24 23 23 23 23 23 23 22 22 22 22 22 23 23 24 25 25 25 24 24 25 26 26 27 27 28 28 29 29 29 29 28 27 27 27 26 25 26 25 24 22 22 23 24 25 25 26 28 28 28 28 27 27 28 28 27 28 28 27 24 18 18 20 20 20 20 21 22 22 21 20 21
34 33 33 32 32 31 31 30 29 29 28 28 27 26 26 25 25 25 25 25 25 25 25 24 24 24 24 24 25 25 26 27 27 27 27 27 28 28 29 29 29 29 29 29 29 28 27 25 25 24 23 24 24 24 24 24 24 23 25 26 26 26 27 30 30 29 30 30 30 29 29 28 28 29 28 27 22 19 20 20 21 21 22 23 23 22 22 22
33 32 31 31 31 30 30 30 29 29 28 28 28 27 27 27 27 26 27 27 27 27 26 26 26 27 27 27 28 28 30 31 29 29 29 29 30 30 30 30 29 29 28 27 26 26 25 24 23 22 22 24 25 25 26 26 27 26 27 28 28 28 28 30 31 31 31 31 31 30 28 28 28 27 28 28 26 23 21 21 21 22 24 25 25 25 24 23
34 33 32 31 31 30 30 30 30 29 29 29 29 29 28 28 29 28 29 29 29 29 29 29 29 29 30 30 30 30 32 33 31 30 30 29 29 29 28 28 27 27 26 26 26 25 25 25 26 25 25 28 28 29 30 30 30 29 29 30 30 30 30 31 31 31 32 32 32 30 28 28 29 26 27 29 28 26 24 24 24 24 25 27 28 28 28 26
37 36 35 34 34 33 33 32 32 31 31 31 31 31 31 31 31 31 31 31 32 32 32 32 32 33 32 32 31 30 32 32 30 29 28 27 27 26 27 27 26 27 27 27 27 27 28 29 30 30 30 30 30 31 31 31 32 31 30 30 30 31 32 32 32 32 33 32 32 31 28 29 30 27 27 30 29 27 26 26 26 26 26 27 29 31 31 29
39 38 38 37 37 36 36 35 35 35 34 34 34 34 34 34 34 34 34 34 35 35 35 35 34 34 33 32 29 28 30 30 28 28 27 27 26 26 27 28 28 29 29 30 30 31 31 32 32 32 31 31 30 30 31 32 32 31 31 30 31 32 32 33 33 33 33 31 32 32 28 29 31 27 27 31 30 28 27 27 28 28 27 28 29 31 32 31
40 40 40 39 39 38 38 38 37 37 37 37 37 37 37 37 37 37 37 37 37 37 36 35 35 34 32 30 27 26 29 29 28 29 29 29 29 29 30 31 31 32 33 33 33 33 33 33 33 32 32 31 30 31 32 32 32 32 31 31 31 31 31 33 34 34 33 32 33 34 30 30 32 29 28 31 32 29 28 28 30 30 29 30 30 30 31 31
40 40 40 39 39 38 38 38 38 38 38 38 38 38 38 38 38 38 37 37 37 36 35 34 33 31 30 29 27 27 30 30 30 31 32 32 32 32 33 33 34 34 34 33 33 33 33 33 33 34 34 33 32 33 33 33 33 33 33 31 31 32 31 33 35 34 33 33 34 36 34 31 32 30 28 30 32 31 29 29 31 32 32 33 32 31 30 30
40 40 39 38 38 37 37 37 37 36 36 36 36 37 36 36 36 36 36 36 35 35 34 33 32 32 31 30 30 31 32 32 33 34 34 35 34 34 34 34 34 34 34 34 33 34 34 34 35 35 35 34 33 34 34 34 34 33 34 33 31 32 32 33 35 35 34 34 36 38 37 33 30 30 29 29 31 32 30 30 32 34 35 34 33 32 31 29
42 42 41 40 39 39 38 38 37 37 37 37 37 37 37 37 37 36 36 36 36 36 35 35 35 35 34 33 33 35 35 35 35 36 36 36 35 35 34 34 34 34 34 35 36 36 36 36 37 37 36 36 35 34 34 34 35 34 35 35 33 33 32 33 35 35 34 35 36 39 40 36 29 28 29 30 31 31 29 30 33 35 36 35 34 32 31 30
42 43 43 42 42 41 41 41 40 40 40 40 40 40 40 40 40 39 39 39 39 39 38 38 38 38 37 35 36 37 36 36 36 35 36 35 35 35 35 34 35 35 36 37 38 38 38 38 38 38 37 37 36 36 35 35 35 35 35 36 36 35 33 32 34 34 35 36 37 38 40 37 31 28 29 30 31 31 29 29 32 34 34 34 32 31 31 31
41 41 42 42 42 42 42 42 42 42 42 42 42 42 42 41 41 41 41 41 41 40 40 40 39 39 38 36 35 36 35 35 35 35 35 35 35 36 36 36 37 37 38 39 39 39 39 39 39 40 39 38 37 37 37 37 36 36 37 38 38 38 36 34 34 34 37 38 39 39 39 37 33 31 31 31 31 31 29 29 32 33 33 32 31 31 31 32
41 41 41 40 40 40 40 41 41 41 41 41 41 41 41 41 41 41 41 40 40 40 40 39 39 38 37 35 34 34 35 35 36 36 36 36 37 38 39 39 39 40 40 40 40 40 40 40 40 40 40 39 38 37 38 38 37 36 39 40 39 39 39 37 35 36 38 39 40 40 39 37 36 35 34 34 34 33 31 31 33 34 33 33 33 33 33 32
42 41 41 40 40 40 40 40 40 40 40 40 40 40 41 40 40 40 40 40 40 39 39 39 38 38 38 36 36 36 37 37 38 38 38 39 39 40 40 41 41 41 41 41 41 41 41 42 41 41 40 39 38 39 40 40 38 38 40 41 42 41 41 39 37 38 39 40 40 39 40 39 37 37 36 36 37 35 34 34 34 34 34 35 34 34 34 33
42 41 41 41 40 41 40 40 40 40 40 40 41 42 42 42 42 41 41 41 41 41 41 40 40 40 40 39 39 39 39 39 39 39 39 39 40 41 41 42 42 42 42 41 41 41 42 42 41 40 39 37 38 41 42 41 40 41 42 43 44 44 42 41 40 41 41 41 39 39 40 40 38 37 36 38 39 37 36 35 34 34 34 34 34 34 33 32
43 42 42 41 41 41 40 40 40 40 40 41 41 42 43 43 44 44 43 43 42 42 42 42 41 42 42 40 41 41 41 40 40 39 39 40 40 41 42 42 42 42 41 41 41 42 42 42 41 40 38 38 41 42 42 42 43 44 45 45 46 44 43 42 42 43 43 42 40 40 41 40 38 35 33 37 39 37 36 37 36 35 34 34 33 33 32 31
45 44 43 43 43 42 42 41 40 41 41 41 41 42 43 44 44 44 44 43 42 42 42 42 42 42 42 41 42 42 41 41 40 39 39 40 40 41 42 42 42 42 41 41 42 42 42 42 42 39 39 40 41 41 42 43 44 45 45 45 44 43 42 42 42 43 44 43 42 41 42 42 39 34 31 35 37 35 36 38 37 36 35 34 33 32 32 31
47 46 46 46 45 45 44 43 43 43 43 44 44 44 45 45 45 45 44 43 43 42 42 43 43 43 42 43 44 44 43 42 41 41 41 41 41 42 42 42 42 42 41 42 43 42 42 43 41 40 42 42 41 41 42 43 43 43 43 42 41 41 41 41 41 42 43 43 43 43 43 42 40 37 35 36 36 35 37 38 36 35 35 36 35 35 34 34
50 49 48 48 48 47 47 46 46 46 46 47 47 48 48 48 48 48 47 46 44 44 45 44 45 45 44 45 46 46 46 45 44 43 43 43 42 42 42 42 41 41 42 42 42 43 43 42 41 41 41 40 39 40 40 40 40 40 40 40 38 39 40 40 40 41 42 42 43 43 43 41 39 38 37 37 36 37 38 38 35 35 37 38 38 38 38 38
53 52 51 50 49 49 49 49 49 49 49 50 50 51 52 52 51 50 50 49 47 46 47 47 47 47 47 48 47 47 47 47 46 45 44 44 43 43 43 41 40 40 40 40 41 41 39 38 38 38 37 36 36 36 36 37 37 38 38 38 37 38 40 40 39 40 41 42 43 43 43 41 37 37 38 36 36 38 39 39 39 38 39 39 39 39 40 40
56 54 53 53 51 51 50 50 50 51 51 52 52 52 52 53 53 53 53 52 50 48 49 50 50 50 50 50 50 49 48 47 46 45 44 44 43 42 41 40 40 38 37 38 40 39 35 36 37 36 35 35 34 35 35 36 37 37 37 37 37 38 39 40 40 40 41 42 43 44 45 44 39 38 39 39 39 40 40 41 41 41 40 40 40 40 41 43
57 57 57 56 54 53 52 52 52 53 53 55 55 53 52 53 54 54 54 55 54 51 50 51 52 52 50 49 48 47 45 43 42 42 42 42 41 39 38 38 38 36 36 38 39 36 34 35 36 36 36 35 34 34 35 36 37 37 36 37 39 39 40 41 42 43 43 43 44 45 47 47 43 42 43 42 43 42 42 42 41 41 42 42 42 43 44 44
57 56 56 56 55 54 53 53 54 55 56 56 55 53 52 52 52 53 54 55 56 52 49 49 49 49 48 45 44 42 41 40 39 39 39 39 39 38 36 35 35 35 36 37 36 35 34 35 36 36 36 36 34 34 34 37 37 36 36 38 41 42 42 43 44 46 47 47 47 47 47 48 48 46 45 46 46 45 43 43 42 43 43 44 45 46 47 47
56 55 55 55 54 54 54 55 55 56 55 54 53 51 50 50 50 50 49 51 53 50 47 46 44 43 43 41 39 38 37 37 36 36 37 37 36 36 36 35 35 37 37 37 35 34 35 35 35 35 36 35 34 34 35 37 37 38 39 40 42 43 45 46 46 48 49 50 51 51 48 49 51 50 48 49 48 47 45 45 45 46 47 47 48 49 49 49
52 53 54 55 54 55 55 54 53 51 50 50 49 47 47 46 45 44 42 45 50 49 45 43 40 39 37 36 35 34 34 34 34 34 35 35 36 36 36 36 37 37 37 37 35 34 35 34 34 35 35 34 35 36 37 38 40 41 42 42 43 44 46 47 48 49 50 51 53 51 46 49 52 51 51 51 50 49 48 48 48 48 49 50 50 50 50 51
43 46 49 52 52 52 50 47 45 44 44 44 44 43 42 40 39 38 38 43 48 48 43 39 38 38 36 35 34 33 33 33 33 34 34 34 35 35 35 36 36 36 36 36 35 34 34 33 34 34 33 34 36 37 39 40 42 43 43 44 45 45 46 47 48 49 49 52 53 48 45 48 52 52 52 52 51 51 51 51 51 50 50 49 49 49 49 50
40 41 44 46 45 43 42 40 39 41 43 43 42 39 37 37 37 37 40 44 45 44 41 38 37 37 36 35 34 32 32 32 32 33 33 33 33 33 34 34 34 35 35 35 34 34 34 34 35 34 35 37 38 39 40 40 41 42 43 44 44 46 47 47 48 48 50 53 51 46 46 49 53 54 54 53 53 53 53 53 52 51 50 49 48 48 48 49
40 41 42 40 39 39 41 41 41 43 46 44 40 38 38 38 38 40 43 43 40 41 40 37 36 36 36 36 35 34 34 32 32 32 32 33 33 33 33 33 33 34 35 35 34 34 36 37 37 38 39 40 39 39 40 40 41 41 43 44 45 47 49 49 50 50 51 52 50 49 50 53 55 55 54 55 56 56 55 54 53 51 50 49 47 47 48 48
42 42 42 40 40 41 43 43 43 45 46 43 39 39 39 40 40 42 43 40 39 41 40 38 39 39 39 38 38 38 36 34 33 33 34 35 35 34 33 34 35 35 36 37 36 38 41 42 42 43 43 43 42 41 42 42 42 43 44 45 47 49 50 52 52 51 52 52 51 52 54 56 57 56 55 56 56 55 55 53 52 51 50 49 48 48 49 49
46 44 43 43 44 46 45 44 44 45 45 44 42 41 41 43 44 44 42 38 38 39 38 38 40 40 41 41 40 40 39 37 37 38 39 39 38 37 37 37 38 39 41 42 43 46 47 47 47 46 46 46 45 45 45 46 46 47 47 47 49 50 52 53 52 53 54 53 53 55 57 60 59 57 56 55 54 54 54 52 51 50 50 50 50 50 50 51
48 46 44 44 46 47 47 44 44 45 44 44 43 41 43 46 46 43 40 38 37 37 37 39 40 42 43 44 44 44 43 41 42 43 43 44 43 42 41 40 41 43 45 48 50 51 51 52 50 48 47 47 46 46 47 48 49 49 49 49 51 51 52 53 53 55 56 56 57 58 60 61 59 56 55 54 53 53 52 51 50 49 51 52 52 52 52 52
46 45 44 43 44 46 47 46 44 43 43 44 44 44 46 47 44 41 40 40 40 40 40 42 44 46 47 48 48 46 44 43 43 43 44 45 45 44 44 43 44 46 48 50 51 52 53 54 53 50 48 47 45 45 46 47 48 49 49 51 52 51 51 54 56 57 58 58 58 57 59 59 56 53 52 52 52 51 50 49 49 50 52 52 52 52 53 53
45 45 43 42 42 43 46 48 48 46 46 47 48 49 49 47 44 42 42 43 45 45 44 46 49 49 50 50 50 49 48 48 48 48 49 49 49 50 49 49 49 50 51 51 52 53 55 57 55 52 51 49 47 46 46 46 48 50 50 51 52 52 53 56 58 57 57 59 57 54 55 55 53 51 50 49 49 49 49 49 50 51 52 52 53 54 54 54
45 45 44 42 42 42 43 45 46 47 48 49 50 51 49 48 47 47 47 46 47 48 49 51 52 52 52 52 52 53 53 53 54 54 55 55 56 56 55 55 55 54 53 51 51 53 55 56 56 54 53 52 50 49 48 48 49 50 50 50 51 53 54 55 56 56 56 58 57 52 52 52 52 51 49 48 48 48 49 50 51 51 52 53 54 55 55 55
47 47 47 46 46 46 46 46 46 46 47 49 50 50 49 49 50 51 52 52 53 55 56 57 57 57 57 57 57 56 56 55 56 57 57 58 59 59 57 56 55 54 52 50 50 51 52 54 55 55 53 52 51 51 51 50 49 49 49 49 50 52 53 53 54 55 55 57 57 53 51 51 52 51 49 48 48 49 50 50 50 51 52 54 55 55 55 55
48 48 48 47 46 47 49 50 50 50 52 53 52 52 51 51 52 54 57 58 59 60 60 59 59 59 59 59 59 59 59 59 58 58 58 59 60 60 59 57 54 52 51 50 50 51 51 52 54 54 52 51 51 51 50 50 49 49 50 50 50 51 52 52 53 54 55 57 57 56 54 52 50 50 49 49 48 49 50 51 51 52 52 54 55 55 55 56
47 46 46 45 44 45 48 50 51 52 54 54 52 53 52 52 52 54 56 58 58 58 58 57 57 57 57 57 58 58 58 58 58 57 58 59 59 58 58 56 54 52 50 50 50 50 50 52 53 51 50 51 51 50 49 48 49 50 50 50 50 51 52 53 54 54 55 57 57 57 57 53 49 50 51 51 50 51 51 52 52 52 53 54 55 56 56 56
49 47 47 47 47 48 50 53 53 54 55 54 53 53 53 52 52 52 54 56 56 56 56 55 56 55 55 55 55 55 55 56 57 57 57 58 56 55 55 55 54 53 52 51 52 52 51 52 52 51 50 50 50 50 49 49 50 51 51 50 50 51 52 55 56 55 54 57 58 58 60 55 50 51 53 52 51 52 52 51 50 51 52 54 55 56 57 58
50 50 50 49 48 51 54 56 55 55 55 54 53 53 53 52 52 52 53 54 55 55 55 55 54 53 53 53 53 53 54 55 56 55 55 55 54 54 54 55 55 55 55 54 55 54 53 53 53 53 52 51 51 52 52 51 52 52 52 51 51 53 54 55 57 55 55 58 59 60 62 58 52 52 53 52 51 52 51 50 51 52 53 55 56 58 59 60
54 53 52 51 51 53 56 58 58 58 57 55 54 54 55 56 55 55 55 55 54 53 52 52 52 52 52 51 51 52 53 55 56 56 56 55 56 56 56 56 56 56 57 56 56 56 55 55 55 55 54 53 53 54 54 53 53 53 53 53 53 54 54 55 57 57 57 59 59 60 62 60 55 53 54 54 53 53 52 53 53 54 55 56 58 59 59 60
58 56 53 53 55 56 56 57 58 56 54 54 55 54 56 57 58 58 58 55 52 50 50 50 49 50 51 51 54 56 57 58 58 57 57 57 57 58 58 59 58 57 57 56 56 56 56 57 57 57 57 56 55 55 55 54 52 52 53 53 54 54 54 56 57 58 60 60 58 59 62 61 57 55 53 53 54 53 53 53 53 54 55 57 58 58 59 60
56 55 55 54 54 54 54 54 55 54 51 51 52 52 52 54 55 57 57 54 51 50 50 49 49 51 55 57 59 61 61 60 61 61 60 61 61 61 61 61 59 58 57 57 57 57 57 57 58 58 58 59 58 56 55 53 53 53 54 54 54 55 56 58 59 60 62 61 58 59 61 59 55 54 53 53 54 53 53 54 54 55 57 59 59 60 60 61
56 57 56 55 53 52 51 51 53 52 49 49 49 48 48 49 50 52 54 54 52 51 51 53 55 59 62 62 63 63 62 63 64 65 65 64 64 63 62 61 60 59 59 58 58 58 57 58 58 58 59 59 58 56 56 56 55 55 55 55 55 56 57 59 62 64 64 63 62 61 61 59 56 54 55 56 55 55 56 56 57 58 59 61 61 61 61 61
58 58 57 56 56 54 52 51 51 51 50 51 51 49 48 48 49 51 52 54 54 56 58 61 63 64 65 65 65 65 65 65 66 66 66 64 63 62 61 60 59 59 58 58 59 58 59 59 59 58 59 58 58 58 59 59 58 58 58 57 56 57 59 62 64 64 63 64 65 62 60 61 58 54 55 57 56 56 57 57 59 60 61 62 62 62 62 63
61 61 60 61 61 59 57 56 55 56 57 58 57 55 53 53 54 55 57 60 62 63 66 67 67 66 67 68 68 68 68 68 69 68 65 63 62 61 61 62 61 60 59 58 58 58 59 60 59 59 59 59 59 60 60 60 61 61 60 59 57 57 60 63 65 63 62 64 66 62 60 61 60 55 56 57 58 58 59 60 61 61 61 61 61 61 62 63
63 63 63 64 64 63 62 62 62 62 62 62 61 59 57 58 59 60 62 66 67 67 69 70 69 69 70 70 70 70 70 70 69 67 64 62 61 61 61 61 62 61 60 59 57 57 59 60 60 60 61 60 60 61 62 62 63 62 61 60 59 59 61 63 63 61 61 63 63 60 60 61 59 57 57 58 59 61 62 61 60 59 59 59 60 61 62 63
66 66 66 66 66 65 65 65 65 66 65 66 66 63 62 63 63 64 66 68 69 69 71 72 71 70 70 70 70 70 69 68 66 65 64 63 62 61 60 61 61 61 61 60 59 59 60 61 61 61 62 62 61 61 62 62 63 63 62 61 61 62 62 62 61 61 62 63 61 60 62 62 58 57 58 59 60 62 61 60 59 58 59 60 61 63 64 65
69 69 69 69 69 68 68 67 68 69 69 69 69 67 67 68 67 67 69 71 71 71 71 71 70 68 68 68 69 68 66 64 64 64 63 62 63 63 63 62 61 61 60 59 60 60 60 61 62 62 63 63 61 61 62 62 63 64 64 61 60 60 61 60 60 61 62 63 63 63 64 63 58 57 59 60 60 60 60 59 60 60 61 62 63 65 67 68
73 73 73 73 73 73 72 72 73 73 73 71 71 70 71 71 70 70 70 71 70 69 69 69 67 67 67 67 66 65 64 63 63 62 61 61 62 63 63 62 61 59 58 59 60 60 60 61 62 62 63 63 61 61 62 62 65 66 63 59 56 56 59 60 59 59 60 62 64 65 64 62 59 59 60 59 59 59 60 60 61 62 63 64 65 67 69 71
Wind_Direction
245 247 248 249 251 253 255 257 259 261 262 264 265 266 267 268 267 266 265 264 263 262 261 261 261 261 262 263 265 266 267 268 269 270 272 272 272 274 276 277 278 278 278 278 278 279 278 278 278 278 278 279 280 281 281 281 283 284 287 287 286 288 291 293 293 293 294 295 294 292 292 293 294 296 298 303 307 304 298 300 306 306 303 303 303 304 306 306
247 248 250 252 253 255 257 259 260 261 262 263 264 265 265 265 264 263 262 261 261 261 261 261 261 262 263 264 265 267 268 269 270 270 272 273 274 274 275 276 277 278 279 278 279 279 279 279 280 280 280 280 281 282 282 282 284 285 286 286 286 289 291 291 292 292 293 294 293 293 294 297 298 299 299 303 306 302 299 300 303 303 301 301 301 301 302 301
249 251 252 254 256 257 259 260 260 261 261 262 262 262 261 261 260 260 259 259 260 261 262 262 263 264 264 265 266 268 269 270 271 271 272 274 275 276 276 277 278 278 279 279 280 280 280 280 281 281 281 281 282 281 281 282 285 287 287 287 288 291 292 291 291 292 293 293 293 293 294 297 297 297 297 299 301 298 297 299 300 301 300 299 298 299 298 296
251 253 254 256 257 258 258 259 259 259 259 259 259 259 258 258 257 257 257 258 259 260 261 263 264 265 266 267 269 269 271 272 272 273 273 274 275 276 277 278 278 279 279 280 280 280 280 281 281 281 282 282 282 281 282 284 286 288 289 289 290 291 292 290 290 292 293 293 293 293 295 297 297 296 296 297 299 297 297 299 299 298 297 295 295 294 293 291
253 254 255 256 257 257 257 258 258 258 258 258 258 257 257 257 257 257 257 258 260 261 262 264 265 267 268 269 271 272 272 272 273 274 274 275 276 276 278 278 278 278 279 279 279 279 280 280 281 281 282 282 281 281 283 285 285 286 287 288 289 290 289 289 290 291 292 292 292 294 296 297 296 296 296 296 296 294 294 296 297 296 295 294 292 289 286 284
253 254 255 256 256 256 257 257 257 257 257 257 257 257 257 257 258 258 259 261 262 263 265 266 267 269 270 272 273 275 275 274 275 275 276 276 277 277 278 278 278 278 278 278 278 278 279 280 280 280 281 280 280 281 281 282 281 282 283 284 285 286 285 286 288 290 289 289 290 292 293 293 291 291 294 294 294 296 296 295 296 296 296 295 292 288 284 281
254 255 256 256 257 257 257 257 257 258 257 258 258 258 258 259 260 261 261 263 264 266 267 268 270 271 273 274 276 277 277 276 276 277 277 277 277 277 277 277 277 277 277 277 276 277 279 279 280 279 279 279 280 281 281 281 280 280 281 282 283 284 284 284 285 286 285 286 288 289 291 292 290 291 293 291 293 297 298 298 297 295 294 292 291 289 285 282
255 256 257 257 257 258 258 258 259 259 259 259 259 260 260 261 262 263 263 265 266 267 268 270 271 272 273 275 276 277 277 276 277 277 277 277 276 276 276 276 276 276 276 275 276 277 279 280 280 280 279 280 281 282 282 283 282 282 282 283 284 284 284 285 284 283 283 285 287 288 291 291 290 292 291 289 291 294 295 296 295 293 290 288 287 287 286 284
256 257 257 258 258 258 259 259 260 260 261 261 261 261 262 263 264 264 265 266 267 268 269 271 272 272 273 273 274 275 274 275 277 276 276 276 276 276 276 276 275 275 275 275 277 278 279 280 280 280 280 281 282 282 282 283 283 285 285 285 285 285 286 287 286 285 285 288 288 287 288 287 287 290 290 288 290 292 293 293 291 291 289 285 282 282 284 286
256 256 257 257 258 258 259 260 261 261 262 263 263 264 264 265 265 266 267 267 268 269 270 270 271 271 272 271 271 271 272 273 276 276 276 276 276 276 276 276 276 276 276 276 277 278 279 279 280 280 281 281 282 282 282 283 284 285 285 285 285 286 287 286 286 287 289 290 289 287 287 286 287 289 289 290 292 292 292 292 290 289 287 283 281 280 282 286
255 255 256 257 257 258 259 260 261 262 263 263 264 264 265 265 266 266 267 267 268 268 268 268 268 268 268 268 268 268 270 273 274 275 275 275 275 276 276 276 276 276 277 277 277 278 279 279 280 281 281 282 282 282 283 284 285 285 285 285 285 286 285 285 285 287 289 290 289 288 287 286 287 290 290 290 291 291 291 290 288 287 284 283 283 283 283 286
254 255 255 256 256 257 258 259 260 261 262 263 263 264 265 265 265 266 266 266 266 266 266 266 266 266 266 267 268 267 268 271 272 274 274 274 275 275 275 275 276 276 277 277 278 279 279 280 281 281 282 283 283 283 284 285 285 286 286 286 285 284 285 285 286 287 288 288 287 286 286 285 286 290 291 289 287 288 288 287 284 282 283 284 285 285 286 289
255 255 255 256 256 257 257 258 259 260 261 262 263 264 264 265 265 265 266 266 266 266 266 266 266 266 267 267 268 269 270 270 271 272 272 273 274 273 273 274 275 276 277 279 280 281 282 283 282 282 283 284 284 285 285 286 286 288 288 287 286 284 284 286 286 288 288 288 286 286 286 287 289 290 290 288 286 286 285 282 279 279 282 284 285 287 291 292
256 256 256 256 257 257 258 258 259 260 260 261 262 263 264 265 265 266 266 266 266 267 267 267 268 268 269 269 269 270 271 271 270 270 271 272 272 272 272 273 274 276 278 279 280 282 283 283 283 283 284 284 285 285 286 286 287 288 288 288 288 287 287 287 287 289 289 287 286 285 286 288 291 289 286 285 284 283 282 280 278 278 280 282 284 286 287 287
258 258 258 258 258 258 258 259 259 260 260 261 262 262 263 264 265 265 266 267 267 268 268 269 269 270 270 270 269 270 270 270 270 270 270 271 271 272 273 273 274 275 277 278 279 281 281 282 282 283 283 284 284 285 285 284 285 286 286 286 287 289 289 288 289 290 288 286 285 284 285 288 290 287 285 285 283 282 282 283 283 282 283 285 285 283 281 280
258 258 259 259 259 259 259 260 260 260 261 261 261 262 262 263 264 264 265 266 267 268 269 269 270 270 271 270 270 270 269 269 269 270 270 271 272 273 274 275 275 276 276 277 278 279 280 281 281 281 282 283 284 285 284 282 283 285 285 286 287 288 288 289 291 290 287 286 285 285 286 287 287 287 288 289 287 287 288 289 289 290 290 291 289 286 284 282
256 257 258 259 260 260 261 261 262 262 262 262 263 263 263 263 263 264 264 265 266 267 268 269 270 270 271 271 270 270 269 269 270 271 271 272 273 273 274 274 275 275 276 277 277 278 279 279 279 280 281 283 285 283 281 281 283 284 284 286 288 288 288 290 290 288 287 287 287 287 287 286 287 289 292 292 291 293 294 294 294 293 292 291 290 289 288 287
254 255 256 258 259 260 260 261 262 262 263 264 264 264 264 264 264 264 264 265 266 267 267 269 270 270 271 271 270 270 269 270 270 271 272 273 274 274 274 274 275 275 276 277 278 278 277 278 279 279 282 284 282 279 279 281 283 284 285 288 289 289 290 290 289 288 288 288 289 290 288 288 290 292 294 293 292 295 296 297 296 294 292 291 289 287 286 286
253 254 255 256 257 258 259 260 261 262 263 263 264 264 264 264 264 264 264 265 266 267 268 269 269 270 271 271 271 270 270 270 271 272 273 273 274 275 274 275 275 276 276 277 277 277 277 278 278 280 282 281 278 278 280 282 283 285 287 289 289 290 290 290 290 290 290 290 293 293 292 291 291 292 292 292 292 295 296 296 295 294 292 290 287 284 283 282
254 255 256 257 257 258 259 259 260 262 263 263 264 264 265 265 265 265 265 266 266 267 269 270 270 270 272 273 272 271 271 271 272 272 273 273 274 274 275 275 275 275 276 277 276 276 277 278 279 281 280 277 277 279 280 281 283 285 287 287 288 288 288 289 290 290 290 291 292 292 291 291 291 291 291 292 294 295 295 293 293 293 291 289 286 284 283 282
253 254 255 257 257 258 259 260 261 263 264 266 266 265 265 265 265 265 265 265 266 267 268 269 270 271 272 273 272 273 273 273 273 273 273 273 274 275 275 275 275 275 275 275 276 278 278 278 280 279 277 277 278 279 279 281 282 283 284 284 286 287 287 288 289 289 289 288 288 287 287 287 289 290 290 291 292 292 291 290 290 291 290 289 289 288 288 288
253 254 255 256 257 258 260 261 262 264 266 268 269 268 265 265 265 265 265 264 265 267 267 268 270 271 271 271 272 274 274 274 275 274 274 274 274 275 274 274 275 275 274 275 277 278 278 279 280 278 278 279 279 278 279 280 280 281 282 283 285 286 287 287 287 287 287 286 286 285 285 286 287 288 288 288 289 289 288 288 288 288 287 289 290 291 293 294
253 254 255 256 257 259 260 261 263 266 267 268 271 270 266 264 264 264 265 265 265 266 268 269 269 270 271 271 271 272 274 275 275 275 275 274 274 275 274 275 275 274 274 276 276 277 279 280 280 280 280 279 278 278 279 279 280 281 282 284 286 286 285 285 286 286 286 285 286 286 285 286 288 288 288 288 288 287 288 288 289 289 289 291 293 295 297 298
255 255 256 257 258 259 261 262 264 266 268 269 271 271 267 265 264 264 265 265 265 265 268 270 270 270 270 270 271 272 273 274 274 275 275 274 275 275 275 274 274 274 275 274 275 277 279 280 280 280 280 279 279 279 280 281 282 282 284 286 286 285 285 285 285 284 284 284 285 286 287 287 287 287 288 288 288 288 289 291 293 295 296 297 298 299 300 300
256 257 257 257 258 259 261 263 265 267 268 270 271 271 267 265 264 264 265 266 266 267 268 269 270 270 270 270 271 272 273 272 272 272 273 274 275 275 274 273 273 273 273 273 276 277 276 276 277 278 278 278 278 279 280 281 282 284 286 286 285 284 284 284 283 283 283 282 283 284 286 287 288 288 289 289 289 291 293 295 296 297 298 299 300 300 299 299
256 257 257 257 258 259 261 263 266 268 269 271 270 268 267 266 266 266 267 268 268 268 268 267 267 268 269 270 271 272 272 272 271 271 271 271 272 273 273 273 273 273 273 274 275 274 272 273 274 275 276 277 277 278 279 281 283 284 283 283 284 283 282 282 283 284 284 284 284 284 285 287 288 289 291 291 290 292 294 296 297 297 298 299 300 300 299 298
257 257 257 257 258 260 262 265 267 268 269 269 268 266 267 268 268 268 268 268 268 267 266 265 264 266 268 269 270 271 270 271 270 268 268 268 268 270 271 272 272 272 272 273 272 270 270 271 272 273 275 277 278 279 280 282 284 283 281 280 281 281 282 282 283 283 284 285 286 286 287 289 289 290 291 291 291 293 295 295 296 298 299 299 300 299 298 298
259 258 258 259 260 262 264 265 266 266 267 266 265 265 266 267 268 268 267 267 267 266 265 265 265 266 266 267 268 268 269 269 268 266 266 266 268 269 270 270 269 269 270 271 270 268 269 270 271 272 274 276 278 280 283 285 285 284 282 280 280 280 280 280 281 281 283 283 284 286 288 289 289 290 291 291 293 295 296 297 298 299 299 298 298 297 296 297
261 259 259 260 261 261 262 262 263 264 264 264 264 265 266 266 266 265 264 263 265 266 266 267 268 267 266 265 265 266 267 268 267 267 267 267 269 270 270 270 269 269 270 270 269 269 270 271 270 272 274 276 279 282 285 285 284 284 283 282 281 280 279 279 280 280 281 282 286 288 288 288 288 289 290 292 294 295 296 298 298 298 297 296 295 295 295 295
258 256 256 258 257 257 258 258 260 262 262 262 263 266 265 264 264 264 261 261 264 268 269 269 268 268 268 268 268 268 268 268 268 269 270 271 272 272 272 271 270 269 270 271 272 272 274 274 274 277 278 280 283 284 285 283 283 283 283 283 282 281 282 281 281 282 281 284 288 289 286 286 287 288 290 292 293 295 296 297 296 295 294 294 294 294 293 293
254 251 251 254 256 258 260 259 259 261 262 262 264 266 265 264 263 262 261 263 267 269 269 268 267 267 268 271 273 273 273 271 271 271 273 275 276 276 274 272 270 270 271 274 275 275 277 278 279 280 282 284 286 285 284 283 283 283 282 282 281 282 283 282 282 282 282 286 289 287 285 284 285 288 290 291 293 295 295 294 293 292 292 292 292 292 291 290
252 249 248 252 256 260 260 258 260 261 261 262 262 261 261 261 260 260 262 267 269 269 269 269 269 268 268 272 276 278 279 279 278 279 279 280 280 279 277 275 274 275 277 278 278 278 279 280 281 283 286 288 287 286 285 284 282 281 280 280 279 280 280 280 281 281 282 285 285 283 283 283 284 287 288 289 291 291 290 290 290 290 290 290 290 289 288 287
252 252 249 249 252 255 254 252 255 256 255 257 258 258 258 259 261 263 265 267 268 269 270 270 271 272 274 277 281 282 283 282 282 282 282 283 282 280 278 277 278 279 279 280 279 279 279 279 281 284 286 286 285 285 284 282 280 279 278 278 277 277 277 278 280 281 281 282 280 280 281 282 284 286 287 287 287 286 286 286 286 286 287 286 286 285 285 284
250 250 246 244 244 246 247 246 246 247 247 250 253 253 256 259 263 265 265 264 263 263 265 268 272 275 277 279 280 280 280 279 280 281 281 281 281 280 279 278 278 278 278 277 276 276 277 278 280 281 281 282 281 280 279 278 277 277 276 275 275 276 277 278 279 278 278 278 278 279 280 281 284 285 284 284 283 282 282 282 283 283 283 283 283 282 282 282
245 243 240 239 238 239 241 242 243 243 242 244 245 246 251 256 260 262 263 261 258 257 261 265 269 271 272 274 275 276 275 275 275 275 274 275 275 276 276 275 275 275 275 275 275 276 277 279 280 281 280 280 278 275 274 274 274 274 274 274 275 276 276 276 275 275 276 276 277 278 279 281 283 282 282 281 280 280 280 281 281 281 280 280 281 281 280 279
240 239 238 239 240 239 240 241 242 242 242 243 242 243 248 252 253 255 257 256 255 257 259 261 263 265 266 268 270 270 269 269 269 269 269 270 270 271 271 272 273 274 275 277 278 278 279 280 281 281 281 279 277 275 273 272 272 272 273 274 275 275 273 273 274 275 275 274 276 278 278 279 280 279 280 279 279 280 280 279 279 278 279 279 279 279 277 276
237 237 238 241 244 245 245 245 244 244 245 245 244 245 246 248 250 251 252 252 255 256 258 259 261 262 265 267 267 267 267 267 267 268 268 269 270 270 271 272 273 274 276 277 277 278 279 280 280 280 280 279 278 277 274 272 271 272 273 272 272 271 271 272 273 273 273 273 275 276 276 276 277 279 280 278 277 277 276 276 276 277 277 277 276 275 275 274
240 240 243 246 249 250 251 250 248 247 248 249 251 250 248 249 252 254 253 253 255 257 259 260 262 263 265 266 266 266 267 268 268 269 269 270 271 272 272 273 273 274 275 276 276 277 278 278 278 278 279 279 279 278 276 275 275 273 272 270 268 269 270 270 271 272 272 272 273 275 274 275 277 279 279 277 275 274 273 273 273 273 273 273 273 272 272 272
246 247 249 250 251 252 253 253 251 250 252 255 257 256 255 254 254 255 256 256 257 258 260 261 262 263 264 264 264 265 266 267 269 270 271 271 272 273 273 274 275 275 275 276 276 276 276 275 275 277 277 277 277 276 276 276 275 273 270 269 269 269 269 269 269 271 271 271 272 274 275 277 279 279 278 275 273 272 272 271 271 272 272 272 271 270 270 270
250 250 249 249 250 252 254 254 253 254 256 258 259 259 258 256 255 255 257 257 257 258 259 260 261 262 263 263 264 265 267 269 270 272 273 273 273 275 275 276 277 278 278 278 277 277 277 276 277 278 277 277 276 276 275 273 271 270 269 270 271 271 271 270 270 271 271 271 272 273 274 277 279 278 275 274 273 272 271 270 271 272 271 271 270 269 268 268
251 249 247 249 252 255 255 254 255 256 257 257 257 257 256 254 254 255 255 256 257 258 259 259 260 261 262 262 264 266 269 270 271 272 273 274 275 276 277 277 278 279 280 281 281 281 280 279 279 279 278 278 277 275 273 271 270 269 269 270 271 271 271 270 271 273 273 272 273 273 273 276 279 277 274 273 272 272 271 271 271 270 269 269 268 268 268 269
250 248 249 251 252 250 249 251 254 255 253 251 250 250 249 248 249 251 253 255 256 257 258 259 259 261 261 263 265 266 268 269 270 271 272 274 275 277 277 277 278 279 280 280 281 281 280 279 279 279 279 278 275 273 272 270 270 270 271 272 272 271 270 270 271 273 272 270 272 272 272 275 279 277 275 274 273 271 271 271 271 269 268 268 268 268 269 269
251 252 253 254 250 245 245 249 252 251 249 248 248 249 249 248 248 250 252 255 257 258 259 260 261 263 265 266 267 268 269 271 272 273 275 276 276 276 277 277 278 278 279 279 279 279 279 279 278 278 277 275 273 273 272 271 272 273 273 273 272 271 271 270 270 270 268 267 268 269 269 274 278 277 276 276 275 274 273 272 271 270 269 268 268 268 268 268
251 252 251 250 247 244 245 245 244 243 245 247 249 251 252 251 251 252 255 258 260 261 262 263 264 266 269 270 272 272 273 274 275 276 276 277 276 276 276 277 278 278 278 278 278 278 278 277 277 277 277 276 275 274 274 274 274 273 271 271 270 270 270 269 270 269 267 266 266 266 268 273 276 276 276 275 274 274 273 272 271 270 270 269 269 268 268 268
243 242 241 240 239 238 238 237 236 239 243 247 249 250 251 252 253 254 257 259 260 261 263 265 268 271 273 274 275 276 277 278 279 278 278 278 277 277 278 278 279 279 278 278 277 277 276 275 275 276 276 277 277 276 274 273 271 269 269 270 270 271 271 271 271 270 268 269 267 267 270 273 275 276 277 275 273 273 272 271 270 270 270 270 270 270 270 271
235 233 232 232 232 230 231 233 235 239 243 246 249 249 249 252 253 253 255 257 259 261 265 268 271 273 275 276 277 277 277 278 278 278 278 279 279 279 279 280 280 279 279 278 278 277 276 275 275 275 275 276 276 274 272 270 269 269 269 269 270 271 271 271 270 269 269 270 270 270 274 275 274 276 277 275 273 272 271 271 271 271 271 271 270 270 271 271
239 237 235 236 238 235 234 236 239 242 245 249 251 251 250 252 252 252 255 257 260 263 267 270 272 273 275 275 276 276 276 277 277 278 279 279 280 280 280 279 279 278 278 278 278 277 276 275 275 274 274 274 273 271 270 270 270 269 269 269 269 270 270 270 269 268 270 271 271 274 276 275 275 276 276 275 275 274 274 273 272 272 272 273 273 273 273 272
247 247 246 247 248 245 244 247 250 252 255 256 257 256 256 256 257 258 259 261 263 265 267 269 270 272 273 274 275 275 276 276 277 278 279 279 278 278 278 278 278 278 278 276 275 274 273 273 274 273 272 271 270 269 269 270 270 269 270 270 270 269 269 268 268 269 271 272 274 276 276 275 276 276 275 275 276 275 273 273 273 274 274 275 275 275 274 274
252 252 253 254 255 254 254 256 257 258 260 260 260 260 261 260 260 261 261 262 264 265 267 269 270 271 272 273 274 275 275 277 277 278 278 277 276 276 277 277 277 277 276 275 273 271 270 271 271 270 269 269 268 268 269 270 270 270 270 271 271 270 268 268 270 272 274 274 276 278 276 274 276 277 276 275 275 274 274 274 275 275 275 275 275 275 275 276
253 254 255 256 257 257 258 258 259 260 261 261 262 263 264 263 263 262 262 263 265 266 268 270 272 273 274 274 275 276 277 278 278 277 277 276 275 275 275 274 274 275 274 274 272 271 270 270 270 269 269 269 269 269 269 269 269 269 269 270 271 271 270 270 272 273 273 275 277 277 276 276 277 277 276 274 273 274 274 275 275 275 275 275 276 276 277 278
253 254 255 256 257 257 257 257 258 259 260 262 264 265 265 265 265 265 265 266 267 268 270 271 273 273 274 275 276 277 278 278 277 277 276 275 275 274 274 274 274 273 273 272 271 270 270 270 270 270 270 270 270 270 269 269 268 267 269 271 272 272 272 272 272 271 273 275 276 275 275 277 277 275 274 273 273 274 274 274 274 275 275 276 276 277 278 279
252 253 255 256 257 258 258 258 258 259 260 262 264 264 264 265 266 267 268 269 270 271 271 272 272 272 273 274 276 277 277 277 277 276 275 274 274 274 273 273 272 272 271 270 270 270 270 270 270 270 270 270 270 269 269 269 268 268 272 274 274 273 272 271 270 271 273 274 275 275 276 277 276 274 273 274 274 274 275 275 276 276 277 277 278 279 280 280
Height
5871 5872 5872 5873 5874 5874 5875 5875 5876 5876 5877 5877 5877 5877 5878 5878 5878 5878 5878 5878 5878 5879 5879 5879 5879 5879 5879 5879 5879 5879 5880 5879 5879 5880 5880 5880 5879 5879 5879 5879 5879 5879 5879 5879 5879 5879 5879 5879 5878 5878 5877 5877 5876 5876 5875 5875 5875 5875 5875 5874 5872 5871 5871 5870 5869 5868 5869 5868 5868 5867 5867 5867 5867 5866 5866 5866 5866 5864 5863 5861 5861 5861 5859 5858 5858 5857 5857 5856
5869 5869 5870 5871 5871 5872 5872 5873 5873 5874 5874 5875 5875 5875 5875 5876 5876 5876 5876 5876 5877 5877 5877 5877 5877 5878 5878 5878 5878 5878 5878 5877 5877 5878 5878 5878 5877 5877 5877 5877 5877 5877 5877 5876 5876 5876 5876 5876 5876 5875 5875 5875 5874 5873 5872 5872 5873 5873 5873 5872 5870 5870 5869 5868 5867 5866 5867 5867 5866 5865 5864 5864 5864 5863 5863 5864 5864 5862 5861 5860 5859 5858 5857 5856 5856 5856 5855 5854
5866 5867 5867 5868 5869 5869 5870 5870 5871 5871 5872 5872 5872 5873 5873 5873 5874 5874 5874 5875 5875 5875 5875 5875 5875 5875 5876 5876 5876 5876 5875 5875 5875 5875 5876 5876 5875 5875 5875 5875 5875 5874 5874 5874 5874 5874 5874 5874 5873 5873 5872 5872 5872 5870 5870 5870 5871 5870 5870 5869 5868 5868 5866 5865 5865 5864 5864 5865 5864 5863 5862 5862 5861 5860 5860 5861 5862 5860 5858 5858 5857 5856 5854 5854 5854 5853 5853 5851
5863 5864 5864 5865 5866 5866 5867 5867 5868 5868 5869 5869 5870 5870 5871 5871 5871 5872 5872 5872 5872 5872 5873 5873 5873 5873 5873 5873 5873 5873 5873 5873 5873 5873 5873 5873 5873 5872 5872 5872 5872 5872 5871 5871 5871 5871 5871 5871 5870 5870 5869 5869 5869 5868 5867 5868 5869 5868 5867 5867 5866 5866 5864 5863 5863 5862 5862 5862 5862 5861 5861 5861 5859 5858 5857 5858 5860 5859 5856 5856 5855 5854 5853 5851 5851 5850 5850 5848
5860 5860 5861 5862 5862 5863 5863 5864 5865 5865 5866 5866 5867 5867 5868 5868 5869 5869 5869 5869 5870 5870 5870 5871 5871 5871 5871 5871 5871 5871 5871 5870 5870 5870 5871 5871 5870 5870 5870 5869 5869 5869 5869 5868 5868 5868 5868 5868 5868 5868 5867 5866 5866 5866 5865 5866 5866 5866 5865 5864 5864 5864 5862 5860 5860 5860 5859 5859 5859 5859 5859 5858 5857 5855 5854 5854 5856 5857 5855 5854 5853 5852 5851 5849 5848 5847 5847 5846
5857 5857 5858 5859 5859 5860 5860 5861 5861 5862 5863 5863 5864 5864 5865 5865 5866 5866 5866 5867 5867 5867 5868 5868 5868 5868 5869 5869 5869 5868 5867 5867 5868 5868 5868 5868 5867 5867 5867 5866 5866 5866 5866 5866 5865 5865 5865 5865 5865 5866 5865 5864 5864 5864 5864 5864 5864 5864 5863 5862 5862 5861 5861 5858 5858 5857 5857 5856 5856 5857 5857 5857 5856 5854 5853 5851 5852 5854 5853 5852 5852 5850 5849 5847 5845 5844 5843 5843
5854 5854 5855 5856 5856 5857 5858 5858 5859 5859 5860 5860 5861 5861 5862 5862 5863 5863 5863 5864 5864 5864 5865 5865 5865 5865 5866 5866 5866 5866 5864 5863 5865 5865 5865 5865 5864 5864 5864 5863 5863 5863 5863 5863 5862 5863 5862 5862 5862 5863 5863 5862 5861 5861 5861 5861 5861 5861 5861 5860 5860 5859 5858 5857 5856 5855 5854 5854 5854 5854 5855 5854 5853 5853 5852 5849 5849 5851 5850 5850 5849 5848 5846 5844 5842 5840 5839 5839
5850 5851 5852 5853 5853 5854 5854 5855 5856 5856 5857 5857 5858 5858 5859 5859 5860 5860 5860 5861 5861 5861 5862 5862 5862 5862 5863 5863 5863 5863 5860 5860 5861 5862 5862 5862 5862 5861 5861 5861 5861 5860 5860 5860 5860 5860 5860 5859 5859 5859 5859 5859 5859 5858 5857 5857 5857 5858 5858 5857 5857 5856 5855 5854 5854 5852 5851 5851 5851 5851 5852 5850 5849 5851 5850 5847 5847 5849 5848 5847 5846 5845 5844 5841 5839 5836 5835 5835
5846 5847 5848 5849 5849 5850 5851 5852 5852 5853 5853 5854 5854 5855 5855 5856 5856 5856 5857 5857 5857 5858 5858 5858 5859 5859 5859 5860 5860 5860 5857 5857 5858 5858 5859 5859 5859 5859 5859 5858 5858 5857 5857 5857 5857 5857 5857 5856 5855 5855 5855 5855 5856 5855 5854 5854 5853 5854 5854 5854 5853 5852 5852 5851 5850 5848 5848 5849 5848 5847 5849 5848 5846 5849 5848 5844 5845 5846 5845 5844 5842 5841 5840 5838 5835 5833 5832 5832
5842 5843 5843 5844 5845 5846 5847 5848 5848 5849 5849 5850 5850 5851 5851 5852 5852 5853 5853 5853 5853 5854 5854 5855 5855 5855 5856 5856 5857 5857 5854 5854 5855 5855 5855 5855 5856 5856 5855 5855 5855 5854 5854 5854 5854 5854 5853 5852 5852 5852 5852 5852 5852 5851 5850 5850 5850 5850 5850 5850 5850 5849 5849 5847 5845 5845 5845 5845 5844 5843 5845 5845 5843 5845 5846 5842 5841 5842 5842 5841 5838 5837 5836 5834 5832 5831 5830 5831
5837 5838 5839 5840 5841 5842 5843 5843 5844 5845 5845 5846 5846 5846 5847 5848 5848 5849 5849 5849 5849 5850 5850 5851 5851 5852 5852 5853 5854 5854 5852 5852 5852 5851 5851 5852 5852 5852 5852 5851 5851 5850 5850 5850 5850 5850 5850 5849 5849 5848 5848 5848 5849 5847 5846 5846 5846 5846 5845 5846 5846 5845 5845 5843 5841 5842 5842 5842 5840 5838 5840 5841 5841 5841 5842 5840 5838 5838 5839 5838 5835 5833 5831 5830 5829 5829 5829 5830
5833 5834 5835 5836 5837 5838 5838 5839 5840 5840 5841 5841 5842 5842 5843 5844 5844 5845 5845 5845 5846 5846 5846 5847 5848 5848 5849 5850 5850 5850 5849 5849 5849 5848 5848 5848 5848 5848 5848 5847 5847 5846 5846 5846 5846 5846 5846 5845 5845 5844 5844 5844 5845 5844 5843 5842 5842 5842 5841 5841 5842 5841 5841 5840 5838 5838 5839 5838 5836 5834 5834 5837 5839 5839 5838 5837 5835 5834 5835 5835 5831 5828 5827 5827 5827 5827 5828 5828
5829 5830 5831 5832 5833 5833 5834 5835 5836 5836 5837 5837 5838 5838 5839 5840 5840 5841 5841 5842 5842 5842 5843 5843 5844 5844 5845 5847 5846 5845 5846 5846 5845 5845 5844 5844 5844 5844 5844 5843 5843 5842 5842 5842 5842 5842 5841 5841 5841 5840 5840 5840 5840 5840 5839 5839 5838 5838 5837 5836 5837 5838 5838 5837 5835 5835 5835 5834 5832 5830 5829 5832 5836 5836 5834 5833 5831 5831 5832 5831 5827 5824 5824 5824 5824 5825 5826 5826
5824 5825 5826 5827 5828 5829 5830 5831 5831 5832 5833 5833 5834 5834 5835 5836 5836 5837 5837 5837 5838 5838 5839 5839 5840 5840 5841 5843 5843 5841 5842 5842 5841 5841 5840 5840 5840 5839 5840 5840 5839 5839 5838 5838 5837 5837 5837 5837 5836 5836 5836 5836 5836 5836 5836 5835 5834 5834 5833 5831 5831 5832 5834 5835 5833 5832 5831 5829 5828 5827 5825 5827 5831 5832 5831 5829 5828 5828 5828 5826 5823 5821 5822 5822 5823 5824 5823 5822
5820 5821 5822 5823 5824 5825 5825 5826 5827 5828 5828 5829 5829 5830 5830 5831 5831 5832 5832 5833 5833 5834 5834 5834 5835 5835 5837 5838 5838 5838 5838 5837 5837 5837 5837 5836 5836 5835 5835 5836 5836 5835 5835 5834 5834 5833 5833 5833 5832 5831 5832 5832 5832 5832 5832 5831 5831 5830 5828 5827 5827 5827 5828 5830 5830 5829 5827 5825 5824 5823 5822 5824 5826 5826 5826 5825 5824 5824 5824 5823 5819 5819 5820 5820 5820 5821 5819 5818
5815 5816 5817 5818 5819 5820 5820 5821 5822 5823 5824 5824 5824 5825 5825 5826 5827 5827 5827 5828 5828 5829 5829 5830 5830 5831 5832 5834 5834 5834 5834 5833 5833 5833 5833 5832 5832 5831 5831 5831 5831 5831 5831 5830 5830 5829 5829 5828 5828 5828 5828 5828 5828 5828 5827 5826 5827 5827 5824 5823 5824 5823 5822 5824 5826 5825 5822 5820 5819 5819 5819 5820 5821 5820 5820 5819 5819 5819 5819 5818 5816 5816 5816 5816 5816 5815 5815 5814
5811 5812 5813 5814 5814 5815 5816 5817 5818 5819 5819 5820 5820 5820 5821 5821 5822 5822 5823 5823 5823 5824 5824 5825 5826 5826 5827 5828 5829 5829 5828 5828 5828 5828 5828 5828 5828 5827 5827 5827 5826 5826 5826 5826 5826 5825 5825 5824 5824 5824 5824 5824 5825 5823 5821 5821 5823 5823 5821 5819 5819 5819 5818 5820 5820 5819 5817 5816 5815 5815 5815 5815 5816 5816 5815 5813 5813 5814 5814 5813 5813 5813 5812 5812 5812 5811 5810 5809
5806 5807 5808 5809 5810 5810 5811 5812 5813 5814 5815 5816 5816 5816 5816 5817 5817 5817 5818 5818 5819 5819 5819 5820 5821 5821 5821 5823 5823 5823 5823 5823 5824 5823 5824 5823 5823 5823 5822 5822 5822 5821 5821 5821 5821 5821 5820 5819 5820 5820 5821 5822 5820 5818 5817 5817 5818 5817 5816 5815 5814 5814 5814 5815 5814 5813 5812 5811 5812 5811 5810 5810 5811 5811 5810 5808 5808 5809 5808 5808 5808 5808 5808 5808 5808 5807 5806 5805
5802 5803 5803 5804 5805 5806 5807 5808 5809 5809 5810 5811 5811 5811 5811 5812 5812 5813 5813 5814 5814 5815 5815 5815 5816 5816 5816 5817 5817 5817 5818 5819 5819 5819 5819 5819 5819 5818 5817 5817 5817 5817 5817 5817 5816 5815 5815 5815 5815 5816 5818 5817 5814 5813 5813 5813 5813 5812 5811 5811 5810 5810 5810 5809 5808 5807 5806 5806 5807 5806 5805 5806 5807 5808 5806 5804 5804 5804 5803 5803 5802 5802 5803 5804 5803 5802 5802 5801
5797 5798 5798 5799 5800 5801 5802 5803 5804 5805 5805 5806 5807 5807 5807 5807 5807 5808 5809 5809 5810 5810 5810 5810 5811 5811 5811 5812 5811 5811 5813 5814 5814 5815 5814 5814 5814 5813 5813 5813 5812 5812 5812 5812 5810 5810 5811 5810 5810 5812 5812 5810 5810 5810 5810 5809 5808 5807 5807 5806 5806 5806 5806 5805 5804 5803 5802 5802 5803 5802 5801 5801 5802 5803 5802 5800 5800 5800 5799 5798 5798 5798 5798 5798 5798 5797 5797 5797
5791 5792 5793 5794 5795 5796 5797 5798 5799 5800 5800 5801 5802 5802 5802 5802 5802 5802 5804 5805 5805 5805 5805 5805 5805 5806 5807 5806 5805 5806 5807 5808 5809 5809 5809 5810 5809 5809 5808 5808 5808 5808 5808 5807 5806 5806 5806 5805 5806 5807 5805 5805 5805 5805 5805 5804 5804 5803 5802 5802 5802 5802 5801 5801 5800 5799 5798 5798 5798 5798 5798 5798 5798 5798 5798 5797 5796 5795 5795 5794 5794 5794 5793 5792 5792 5791 5791 5791
5786 5786 5787 5788 5789 5791 5792 5793 5793 5794 5795 5795 5796 5797 5797 5797 5797 5797 5798 5799 5801 5800 5800 5801 5800 5801 5802 5801 5801 5801 5801 5803 5804 5804 5804 5804 5804 5804 5804 5803 5804 5804 5803 5802 5802 5801 5801 5801 5802 5801 5800 5800 5800 5800 5800 5800 5799 5799 5798 5798 5798 5797 5797 5796 5796 5795 5795 5794 5794 5793 5793 5794 5794 5793 5793 5793 5792 5791 5790 5790 5791 5791 5789 5788 5787 5786 5785 5784
5780 5781 5782 5783 5784 5785 5786 5787 5788 5789 5789 5790 5790 5791 5791 5791 5791 5792 5792 5793 5795 5796 5795 5796 5796 5796 5796 5796 5796 5797 5797 5797 5798 5798 5799 5799 5799 5799 5799 5799 5799 5799 5799 5798 5798 5797 5797 5797 5797 5797 5796 5796 5795 5795 5795 5795 5795 5794 5794 5794 5794 5794 5793 5792 5792 5791 5790 5789 5789 5788 5788 5789 5790 5788 5787 5788 5787 5786 5785 5784 5784 5784 5783 5782 5781 5780 5779 5777
5774 5775 5776 5777 5778 5779 5780 5781 5782 5783 5784 5784 5784 5785 5785 5785 5785 5786 5786 5786 5788 5791 5791 5790 5789 5790 5790 5790 5791 5792 5792 5793 5793 5793 5793 5793 5793 5794 5794 5794 5794 5794 5794 5793 5793 5793 5794 5793 5793 5793 5793 5792 5791 5791 5791 5791 5791 5790 5790 5790 5790 5789 5788 5788 5787 5787 5786 5785 5784 5782 5781 5782 5784 5783 5782 5782 5781 5780 5780 5778 5777 5776 5775 5774 5773 5773 5771 5770
5768 5769 5770 5771 5772 5774 5774 5775 5776 5777 5778 5778 5779 5779 5779 5779 5780 5780 5780 5779 5780 5785 5786 5785 5783 5783 5784 5785 5785 5786 5787 5788 5788 5788 5788 5788 5788 5788 5789 5789 5789 5789 5789 5789 5789 5790 5790 5789 5789 5789 5788 5788 5788 5787 5787 5787 5786 5786 5786 5786 5785 5785 5784 5783 5782 5781 5781 5781 5780 5779 5776 5776 5778 5777 5776 5776 5775 5774 5773 5772 5771 5769 5768 5768 5767 5766 5765 5764
5762 5763 5763 5764 5766 5767 5768 5769 5770 5771 5772 5772 5773 5773 5773 5773 5774 5774 5775 5773 5773 5777 5779 5778 5778 5777 5778 5779 5780 5781 5781 5782 5783 5783 5783 5783 5783 5783 5783 5784 5784 5784 5784 5784 5785 5785 5785 5785 5785 5784 5784 5784 5784 5783 5783 5783 5783 5783 5783 5782 5780 5780 5780 5778 5778 5777 5776 5775 5775 5774 5772 5771 5772 5771 5770 5769 5768 5768 5768 5767 5765 5764 5763 5762 5761 5759 5758 5757
5755 5756 5757 5758 5760 5761 5762 5763 5764 5765 5765 5766 5767 5767 5767 5768 5768 5769 5770 5767 5766 5769 5770 5771 5773 5773 5773 5774 5775 5775 5775 5776 5777 5777 5778 5778 5778 5778 5779 5779 5779 5778 5779 5779 5780 5780 5780 5780 5780 5779 5779 5779 5779 5779 5778 5778 5779 5779 5778 5777 5776 5775 5774 5773 5773 5772 5771 5770 5768 5768 5768 5767 5766 5766 5764 5762 5762 5763 5762 5761 5760 5758 5757 5756 5754 5753 5751 5750
5749 5750 5751 5752 5754 5755 5756 5757 5758 5759 5759 5760 5761 5761 5762 5763 5763 5764 5764 5761 5758 5760 5762 5764 5767 5768 5769 5770 5770 5770 5770 5771 5771 5771 5772 5773 5773 5774 5774 5774 5774 5773 5773 5774 5775 5775 5775 5775 5775 5775 5775 5774 5774 5774 5774 5774 5773 5773 5773 5772 5771 5771 5769 5769 5768 5766 5765 5764 5763 5763 5764 5761 5760 5760 5757 5755 5755 5756 5755 5754 5753 5751 5750 5749 5748 5746 5745 5744
5744 5745 5745 5746 5747 5749 5749 5751 5752 5753 5754 5754 5755 5756 5757 5757 5758 5758 5757 5755 5752 5753 5757 5760 5761 5762 5764 5764 5765 5765 5765 5766 5766 5766 5767 5767 5768 5769 5768 5768 5768 5768 5768 5769 5769 5769 5770 5771 5770 5770 5771 5770 5770 5770 5770 5769 5768 5767 5767 5766 5765 5764 5763 5763 5762 5761 5760 5758 5759 5760 5758 5756 5755 5755 5753 5750 5750 5750 5749 5748 5747 5745 5743 5742 5741 5740 5740 5738
5739 5740 5740 5740 5742 5743 5743 5746 5748 5747 5747 5749 5750 5751 5752 5751 5752 5752 5749 5748 5748 5749 5752 5755 5755 5756 5757 5758 5759 5760 5761 5761 5761 5761 5762 5762 5763 5763 5763 5763 5763 5763 5763 5763 5764 5764 5765 5765 5764 5765 5766 5765 5765 5765 5765 5764 5763 5763 5761 5760 5759 5757 5757 5756 5756 5756 5753 5752 5755 5755 5752 5750 5749 5750 5749 5747 5745 5745 5744 5742 5740 5739 5737 5736 5735 5734 5734 5732
5734 5735 5735 5736 5737 5738 5738 5740 5743 5742 5741 5743 5745 5746 5746 5746 5746 5745 5742 5743 5746 5746 5747 5749 5750 5751 5751 5752 5753 5754 5755 5755 5756 5757 5757 5758 5758 5758 5758 5758 5758 5758 5758 5758 5760 5760 5759 5759 5759 5760 5760 5760 5760 5759 5759 5758 5758 5757 5755 5755 5753 5751 5751 5750 5749 5750 5747 5748 5751 5749 5746 5744 5744 5746 5746 5742 5741 5740 5737 5735 5733 5732 5731 5730 5729 5728 5727 5726
5728 5729 5730 5732 5733 5733 5734 5735 5737 5736 5735 5737 5739 5740 5740 5740 5740 5738 5738 5741 5742 5740 5742 5743 5743 5745 5746 5747 5748 5747 5748 5748 5749 5750 5751 5752 5753 5753 5753 5752 5752 5752 5752 5753 5754 5753 5753 5753 5754 5753 5754 5754 5754 5753 5753 5752 5752 5751 5750 5749 5747 5746 5744 5743 5744 5743 5742 5744 5745 5741 5739 5737 5738 5742 5741 5739 5738 5735 5731 5729 5727 5726 5725 5724 5723 5722 5721 5719
5723 5724 5725 5726 5728 5728 5729 5730 5731 5731 5731 5732 5732 5733 5734 5733 5733 5734 5735 5737 5736 5735 5737 5737 5737 5738 5739 5740 5741 5741 5741 5742 5742 5743 5744 5746 5747 5747 5748 5747 5747 5747 5747 5747 5747 5747 5747 5749 5749 5749 5749 5749 5748 5748 5747 5746 5745 5745 5744 5743 5741 5740 5737 5736 5738 5737 5736 5738 5737 5735 5733 5730 5733 5737 5736 5734 5733 5729 5726 5724 5722 5720 5719 5718 5717 5716 5714 5713
5717 5718 5719 5720 5721 5722 5724 5724 5724 5725 5725 5726 5727 5728 5727 5726 5728 5730 5731 5731 5731 5731 5732 5732 5732 5733 5733 5734 5734 5735 5736 5737 5737 5738 5739 5740 5741 5742 5742 5742 5742 5742 5741 5741 5741 5741 5741 5743 5744 5744 5744 5744 5743 5742 5741 5739 5738 5738 5738 5736 5734 5734 5732 5730 5732 5730 5728 5730 5730 5729 5726 5724 5727 5730 5729 5728 5726 5723 5720 5718 5716 5715 5713 5711 5710 5709 5708 5707
5710 5711 5713 5714 5714 5715 5717 5717 5718 5719 5719 5720 5721 5721 5721 5722 5724 5726 5726 5726 5725 5726 5728 5729 5729 5729 5729 5729 5730 5730 5732 5732 5733 5734 5734 5735 5736 5737 5737 5737 5736 5736 5736 5735 5735 5735 5734 5736 5738 5737 5738 5738 5736 5735 5735 5733 5732 5731 5731 5729 5728 5729 5727 5723 5722 5722 5721 5721 5722 5723 5719 5718 5721 5722 5722 5720 5718 5716 5714 5712 5711 5709 5707 5705 5704 5703 5701 5700
5703 5704 5706 5708 5708 5708 5709 5710 5711 5712 5713 5713 5713 5714 5717 5719 5720 5721 5721 5721 5719 5720 5723 5724 5724 5724 5724 5725 5726 5726 5727 5727 5727 5728 5728 5729 5730 5731 5732 5732 5731 5731 5730 5729 5728 5727 5727 5728 5730 5729 5729 5730 5729 5728 5727 5727 5726 5724 5724 5724 5722 5722 5720 5716 5713 5715 5714 5710 5713 5718 5714 5712 5713 5714 5715 5713 5711 5710 5707 5705 5704 5702 5700 5699 5697 5696 5694 5693
5696 5698 5700 5701 5701 5702 5702 5704 5705 5705 5706 5706 5706 5709 5714 5715 5714 5714 5715 5715 5714 5714 5716 5716 5717 5718 5719 5721 5722 5721 5720 5720 5721 5721 5722 5722 5723 5725 5727 5726 5726 5725 5724 5723 5721 5720 5720 5721 5723 5722 5720 5721 5721 5720 5719 5719 5719 5717 5718 5718 5716 5713 5712 5710 5706 5706 5706 5701 5704 5710 5709 5707 5706 5707 5709 5708 5705 5704 5701 5698 5697 5695 5694 5692 5690 5688 5687 5686
5689 5692 5693 5694 5695 5695 5696 5697 5698 5698 5698 5699 5701 5705 5708 5709 5710 5709 5708 5708 5708 5708 5709 5709 5711 5712 5713 5714 5715 5714 5713 5713 5713 5714 5715 5715 5715 5718 5719 5718 5719 5719 5718 5717 5715 5714 5714 5713 5716 5717 5713 5712 5713 5712 5711 5711 5711 5711 5709 5709 5709 5706 5704 5704 5700 5699 5699 5694 5693 5699 5702 5701 5700 5700 5701 5700 5698 5697 5694 5692 5690 5688 5687 5685 5683 5681 5680 5679
5683 5685 5686 5687 5688 5689 5689 5689 5691 5691 5690 5693 5697 5699 5702 5704 5704 5702 5700 5700 5701 5701 5702 5704 5704 5705 5706 5708 5707 5706 5706 5706 5706 5706 5707 5708 5707 5709 5711 5711 5712 5712 5711 5710 5708 5707 5707 5705 5707 5711 5709 5705 5705 5704 5704 5704 5703 5702 5700 5699 5700 5699 5697 5696 5693 5692 5691 5687 5685 5687 5691 5695 5697 5694 5692 5691 5690 5689 5687 5685 5683 5681 5680 5678 5676 5675 5673 5672
5677 5679 5679 5680 5682 5683 5682 5682 5683 5682 5682 5687 5691 5691 5694 5696 5696 5695 5692 5692 5693 5694 5696 5697 5697 5698 5700 5701 5701 5700 5699 5699 5700 5699 5699 5700 5700 5701 5703 5703 5704 5704 5703 5702 5700 5700 5699 5696 5698 5704 5703 5699 5697 5697 5697 5697 5694 5692 5692 5691 5692 5691 5689 5687 5685 5685 5683 5679 5678 5677 5678 5686 5692 5688 5683 5682 5682 5680 5679 5678 5677 5675 5673 5671 5669 5667 5666 5665
5671 5673 5673 5674 5676 5677 5677 5675 5675 5675 5675 5680 5683 5684 5686 5687 5688 5688 5685 5683 5685 5687 5688 5689 5690 5692 5694 5694 5694 5694 5692 5692 5693 5692 5691 5693 5694 5694 5695 5696 5696 5695 5695 5694 5692 5692 5691 5688 5689 5694 5695 5693 5690 5688 5689 5688 5686 5685 5685 5685 5685 5683 5682 5678 5676 5678 5677 5671 5670 5668 5665 5675 5685 5681 5675 5675 5674 5672 5671 5671 5670 5668 5666 5663 5662 5660 5659 5658
5664 5665 5666 5668 5670 5671 5670 5668 5668 5668 5670 5674 5677 5677 5679 5679 5680 5680 5678 5676 5678 5679 5680 5682 5684 5685 5686 5687 5687 5687 5686 5685 5686 5685 5686 5687 5688 5687 5688 5689 5688 5688 5688 5687 5685 5685 5683 5681 5680 5683 5687 5687 5682 5679 5680 5680 5679 5678 5678 5679 5679 5676 5674 5672 5668 5671 5671 5664 5663 5660 5655 5663 5675 5673 5667 5667 5667 5665 5664 5664 5663 5660 5658 5656 5654 5653 5652 5650
5655 5657 5658 5659 5662 5663 5662 5662 5663 5662 5665 5669 5670 5670 5671 5671 5672 5673 5671 5670 5671 5672 5672 5675 5677 5677 5678 5679 5679 5679 5679 5678 5678 5680 5680 5681 5681 5681 5681 5681 5681 5681 5680 5680 5678 5677 5676 5674 5672 5673 5677 5679 5675 5671 5670 5671 5673 5672 5671 5672 5671 5669 5668 5665 5661 5661 5660 5657 5658 5653 5647 5654 5664 5664 5661 5660 5659 5658 5657 5655 5654 5652 5650 5649 5647 5645 5644 5642
5647 5649 5650 5651 5653 5654 5655 5656 5657 5657 5659 5661 5660 5661 5662 5662 5665 5666 5665 5665 5665 5665 5665 5667 5669 5670 5671 5671 5671 5671 5671 5670 5672 5673 5674 5673 5673 5674 5673 5673 5674 5674 5673 5672 5671 5670 5668 5666 5664 5664 5665 5667 5668 5665 5662 5663 5666 5665 5663 5664 5663 5662 5661 5657 5655 5652 5647 5648 5652 5647 5642 5648 5654 5655 5656 5654 5650 5650 5649 5646 5645 5644 5641 5640 5639 5637 5635 5634
5639 5640 5641 5642 5644 5646 5648 5650 5651 5651 5652 5651 5651 5654 5654 5655 5658 5659 5658 5658 5658 5657 5658 5660 5663 5663 5663 5663 5663 5663 5663 5664 5664 5664 5665 5666 5665 5665 5666 5665 5666 5666 5665 5664 5663 5662 5661 5658 5657 5657 5655 5656 5659 5659 5656 5656 5657 5656 5656 5656 5656 5656 5654 5649 5647 5642 5636 5638 5642 5639 5638 5643 5646 5647 5647 5645 5643 5642 5641 5638 5637 5636 5633 5631 5630 5628 5627 5626
5630 5631 5633 5634 5635 5637 5640 5642 5642 5643 5645 5644 5644 5647 5648 5648 5652 5652 5650 5650 5651 5650 5651 5653 5656 5655 5655 5656 5656 5656 5657 5657 5655 5655 5657 5657 5655 5656 5657 5657 5657 5657 5656 5656 5654 5653 5651 5650 5649 5649 5647 5647 5649 5650 5648 5647 5648 5648 5649 5649 5649 5648 5646 5642 5637 5631 5629 5630 5630 5633 5635 5635 5638 5642 5638 5634 5634 5633 5631 5630 5629 5627 5625 5623 5621 5620 5619 5618
5621 5622 5625 5625 5625 5629 5633 5634 5634 5636 5636 5635 5636 5640 5642 5643 5644 5644 5644 5645 5645 5644 5643 5645 5648 5648 5648 5649 5647 5647 5649 5648 5646 5647 5648 5648 5647 5648 5648 5648 5648 5648 5648 5647 5645 5644 5642 5640 5641 5641 5639 5640 5640 5639 5638 5638 5639 5640 5641 5643 5644 5642 5638 5634 5627 5624 5625 5622 5619 5627 5630 5624 5628 5637 5631 5624 5624 5624 5622 5621 5619 5618 5616 5615 5613 5612 5611 5610
5613 5615 5617 5616 5616 5622 5626 5627 5628 5627 5627 5627 5628 5632 5636 5637 5637 5637 5638 5637 5636 5637 5636 5637 5641 5642 5640 5639 5638 5638 5640 5639 5638 5639 5640 5639 5639 5639 5639 5640 5639 5640 5640 5638 5637 5636 5633 5631 5633 5633 5631 5632 5631 5629 5629 5630 5630 5631 5633 5635 5637 5636 5631 5624 5619 5620 5621 5614 5612 5621 5622 5615 5619 5627 5624 5617 5615 5614 5612 5611 5610 5610 5609 5607 5605 5604 5603 5601
5605 5607 5608 5608 5610 5615 5618 5618 5618 5617 5619 5619 5620 5625 5629 5629 5629 5630 5630 5627 5627 5630 5629 5628 5632 5634 5631 5630 5629 5630 5632 5632 5630 5632 5632 5630 5630 5631 5632 5631 5631 5631 5631 5630 5628 5627 5625 5623 5624 5624 5622 5623 5622 5620 5621 5621 5620 5621 5625 5627 5628 5628 5623 5617 5614 5617 5614 5606 5607 5612 5609 5607 5613 5616 5613 5610 5606 5602 5602 5602 5602 5602 5601 5599 5597 5595 5594 5592
5597 5598 5599 5599 5602 5606 5608 5608 5608 5608 5610 5610 5611 5619 5621 5619 5621 5622 5619 5618 5619 5622 5621 5620 5623 5624 5621 5620 5620 5621 5625 5624 5621 5622 5623 5621 5621 5622 5623 5622 5623 5623 5622 5622 5620 5618 5617 5615 5614 5614 5613 5613 5615 5614 5613 5612 5610 5611 5616 5619 5619 5617 5614 5613 5612 5611 5606 5600 5602 5601 5595 5599 5609 5608 5601 5600 5598 5594 5594 5595 5595 5595 5593 5592 5589 5587 5586 5584
5588 5589 5590 5590 5593 5596 5597 5599 5600 5599 5601 5602 5605 5612 5611 5609 5612 5612 5607 5608 5611 5612 5613 5613 5615 5614 5611 5611 5612 5614 5616 5614 5611 5613 5613 5611 5610 5612 5613 5613 5614 5614 5614 5614 5611 5610 5609 5607 5606 5606 5603 5604 5608 5607 5604 5604 5601 5601 5606 5612 5613 5610 5607 5606 5605 5602 5599 5595 5593 5590 5587 5592 5600 5598 5591 5590 5589 5588 5588 5588 5587 5587 5586 5584 5582 5579 5577 5575
5578 5579 5581 5582 5583 5586 5588 5589 5589 5589 5593 5597 5599 5600 5600 5600 5602 5600 5597 5600 5602 5602 5603 5605 5605 5604 5603 5604 5606 5607 5606 5605 5604 5604 5604 5602 5601 5602 5604 5604 5605 5606 5606 5605 5603 5603 5602 5599 5598 5598 5594 5595 5599 5597 5596 5595 5589 5590 5601 5607 5606 5603 5598 5595 5595 5596 5594 5588 5582 5581 5581 5584 5587 5586 5583 5583 5582 5580 5580 5580 5579 5578 5577 5575 5573 5571 5568 5566